STARLINK Y

Last updated on Wed Apr 23 2025 00:02:06 GMT+0000 (Coordinated Universal Time)

1 63591U 25076Y 25112.83334491 -.00906289 26022-3 -22419-2 0 9991 2 63591 43.0019 345.5547 0001974 255.0055 129.3135 15.95007262 2585

Satellite not in orbit